Wind_Speed
34 27 26 28 29 29 28 28 28 26 24 21 18 17 15 12 15 16 20 19 21 21 20 22 23 21 21 20 22 22 22 22 25 28 30 31 34 36 38 39 35 34 31 32
33 31 29 27 25 26 29 30 30 29 29 23 20 16 15 15 19 21 19 15 19 23 22 24 27 28 26 26 24 24 27 29 30 31 31 33 36 37 35 34 34 33 31 31
30 28 28 32 28 27 27 30 26 29 30 23 23 20 19 18 20 24 23 22 19 21 24 25 28 29 30 28 28 27 27 27 28 31 33 34 33 33 34 35 36 36 35 36
22 19 15 23 21 25 28 27 26 27 25 22 20 21 19 19 22 26 26 25 24 21 21 24 25 25 24 22 22 22 24 27 30 32 31 31 32 33 34 34 34 34 33 33
22 21 20 22 21 20 21 24 22 24 24 21 21 23 29 27 26 27 28 29 28 26 23 23 23 22 21 21 22 25 27 28 28 28 29 30 30 31 31 31 31 30 30 29
16 21 19 23 22 17 18 25 18 18 18 18 21 27 25 25 24 25 26 28 27 27 25 23 22 21 22 23 24 25 26 26 26 27 26 27 27 28 28 28 27 26 26 27
26 16 19 17 16 19 19 24 11 13 14 17 21 22 19 22 25 23 23 25 26 26 24 22 21 22 22 23 24 24 23 24 24 25 25 26 26 26 26 26 26 26 26 27
22 23 20 15 19 21 24 18 15 17 15 18 19 28 22 22 22 21 21 24 26 25 23 22 22 23 24 24 23 23 23 23 24 24 23 24 25 26 26 26 26 27 27 27
18 20 25 21 23 22 17 18 19 17 17 23 24 27 25 23 23 23 23 26 26 25 24 23 24 25 24 23 23 23 24 24 24 23 23 24 24 25 25 25 26 27 28 29
15 17 18 17 19 17 20 19 21 25 24 25 24 24 24 24 24 25 26 27 27 26 26 26 26 26 25 24 24 26 26 24 24 24 24 24 24 24 25 25 27 29 29 30
31 29 26 20 22 20 22 22 23 22 24 25 24 24 24 25 25 26 28 30 28 28 27 27 28 27 27 27 28 28 27 25 25 25 25 24 23 25 27 27 28 30 31 33
32 28 25 20 20 20 24 22 22 24 26 26 25 24 23 25 27 29 31 31 30 28 29 30 30 31 31 31 31 30 28 27 25 25 25 24 26 26 27 29 30 30 32 34
29 21 22 25 30 23 24 23 26 25 26 24 24 25 28 29 30 32 33 33 32 32 32 33 34 35 34 34 33 32 29 26 26 24 24 25 26 28 32 29 29 31 33 36
29 33 31 28 27 30 26 22 24 21 24 26 25 27 29 33 35 36 36 36 37 37 37 38 38 38 36 34 31 27 26 25 23 23 24 26 27 28 29 31 34 37 39 38
27 28 28 28 27 27 27 28 23 21 23 27 29 31 32 34 39 41 42 43 43 42 43 43 42 41 38 34 29 25 21 20 22 24 26 27 28 29 31 32 34 36 38 40
28 27 31 30 29 27 26 25 25 25 27 27 31 34 37 39 43 44 45 47 48 48 47 44 44 39 35 28 21 19 20 21 22 25 27 29 30 31 33 34 36 38 39 42
28 31 33 34 34 32 30 34 26 31 35 33 35 38 43 45 45 46 48 51 49 46 46 45 43 32 22 21 19 18 17 20 24 27 30 31 32 33 35 36 38 40 42 44
24 20 24 34 39 40 41 41 37 38 35 36 40 40 41 42 41 43 44 47 46 41 34 29 25 22 18 16 16 18 21 25 28 30 32 33 34 35 36 38 40 42 43 44
39 33 32 26 26 26 28 29 30 30 34 35 34 33 33 36 37 36 34 32 29 25 22 20 20 18 16 17 21 24 27 29 31 32 34 35 36 37 39 40 42 43 44 44
39 40 37 36 31 25 25 26 25 25 27 26 26 28 29 28 29 25 21 18 17 18 18 17 15 17 20 24 27 29 31 32 33 35 36 37 38 39 41 42 42 43 43 43
30 30 31 30 26 26 22 21 21 20 20 16 13 15 15 17 16 15 15 14 13 14 16 18 21 24 27 29 31 33 35 36 37 38 40 40 41 42 42 43 43 43 42 41
11 11 11 10 11 12 10 7 5 6 7 7 8 8 9 10 10 10 10 12 16 18 21 23 27 29 31 33 35 38 39 40 42 42 43 42 43 43 44 44 43 42 41 40
6 7 8 9 8 7 7 5 3 2 2 4 5 5 4 6 9 13 16 18 20 23 25 27 30 32 35 38 40 42 43 44 44 44 44 44 44 44 44 43 42 41 40 39
12 11 8 7 7 6 5 4 3 2 1 0 3 6 10 14 17 19 21 23 26 28 31 33 35 38 40 41 43 44 45 45 46 46 46 45 45 44 43 42 41 40 39 37
6 5 4 4 3 1 1 1 1 4 7 10 13 16 18 20 22 24 26 29 31 34 36 37 39 40 42 44 46 47 47 47 46 45 44 43 43 42 42 41 40 39 37 35
4 3 2 1 2 3 5 7 10 13 15 17 19 21 23 25 27 29 31 33 34 36 39 42 44 45 47 48 48 47 46 45 44 43 43 42 42 41 40 39 37 36 34 32
3 5 6 7 8 10 12 14 15 17 19 21 23 25 27 29 31 33 36 38 40 43 44 46 46 48 48 47 47 47 47 45 44 43 42 41 40 38 37 35 34 32 31 29
Wind_Direction
232 231 231 228 226 227 232 234 236 244 247 258 269 254 270 252 230 259 269 263 258 251 253 239 230 225 228 236 239 244 246 249 259 268 270 274 280 282 285 287 285 285 283 279
229 225 231 236 233 234 236 237 243 248 254 260 267 274 262 260 255 261 266 265 253 251 254 241 233 234 237 238 240 247 250 257 263 267 274 281 284 287 287 287 289 290 287 282
233 225 233 241 235 242 241 240 242 246 251 259 259 258 255 263 255 256 255 263 264 252 249 243 236 238 240 246 251 252 254 258 267 276 282 285 286 285 286 288 288 288 286 287
216 219 223 234 236 239 242 242 245 249 248 251 258 257 253 251 251 258 250 251 254 254 251 246 243 242 239 241 248 257 267 275 281 285 286 286 286 287 286 286 286 287 289 290
217 225 241 241 230 225 239 245 243 247 248 250 262 254 265 272 260 256 249 250 252 259 251 245 239 236 244 255 266 275 281 283 284 285 287 288 289 289 288 288 289 289 290 290
211 228 231 237 234 242 239 252 241 242 244 245 258 260 264 262 260 265 253 249 251 246 234 229 234 245 257 268 276 281 283 285 288 290 291 293 292 288 286 285 287 288 289 291
219 230 240 230 236 218 215 250 241 227 239 255 258 271 249 247 260 264 244 241 236 227 227 235 247 259 270 277 279 280 283 286 290 292 291 289 287 285 283 283 285 288 292 296
223 229 235 220 213 219 257 262 242 255 268 263 258 251 256 261 255 247 234 230 226 227 235 247 259 269 273 274 275 277 282 288 289 287 286 286 283 282 283 287 292 297 300 300
220 239 242 240 242 257 258 250 256 258 271 278 286 255 257 255 246 236 226 225 227 233 245 256 264 268 268 271 275 281 288 289 288 284 283 284 285 288 291 295 298 299 299 299
248 244 247 240 250 247 254 258 260 277 284 280 287 259 252 241 236 232 227 227 233 243 254 260 262 264 268 273 276 285 290 288 286 286 288 288 289 290 292 295 296 298 300 300
252 252 262 253 257 261 261 267 275 280 280 279 274 255 242 236 236 231 228 233 240 250 259 260 261 264 269 274 283 291 294 290 286 286 287 286 286 289 292 297 298 300 301 302
251 252 248 264 262 265 266 274 270 273 271 272 264 246 241 240 234 232 234 240 247 256 261 261 263 266 271 274 283 290 292 288 284 284 283 284 288 290 295 299 299 300 302 303
256 255 256 254 253 265 267 270 276 276 263 260 256 251 247 241 238 238 241 246 251 259 262 260 261 264 268 271 280 285 288 280 279 278 281 286 291 296 300 299 298 300 303 305
258 252 254 260 256 261 255 271 273 269 262 255 249 246 245 241 239 240 244 248 252 257 257 257 257 260 261 264 267 269 272 274 275 278 285 289 293 296 298 301 305 307 308 309
249 245 250 260 255 255 256 265 270 262 264 257 252 246 242 245 243 242 245 249 251 253 254 254 255 254 252 254 257 260 266 271 278 284 288 293 297 298 300 302 304 305 306 309
248 249 254 256 255 255 253 269 272 269 259 257 253 247 246 245 243 246 249 251 251 252 252 249 246 244 242 245 249 253 259 271 284 290 295 297 298 299 302 303 304 305 307 309
251 251 249 252 254 258 260 259 263 263 259 253 252 253 248 248 251 254 254 252 248 244 243 241 241 241 250 255 261 265 275 287 289 293 295 297 298 300 302 304 305 307 308 308
267 270 265 260 261 263 261 262 261 260 255 260 257 256 257 257 256 255 251 250 244 238 239 248 258 264 263 265 273 283 285 286 288 291 292 294 297 300 303 305 307 307 306 307
257 259 261 268 269 270 268 263 255 256 259 254 251 250 248 252 251 246 243 237 238 247 259 264 262 264 270 280 283 285 286 287 288 290 292 295 298 301 304 305 305 305 305 306
251 259 264 267 262 254 250 248 246 248 249 248 248 248 245 236 238 233 234 248 260 263 264 263 271 282 284 284 283 284 285 287 289 291 294 297 300 302 303 302 303 303 304 305
249 246 244 243 245 253 260 259 252 245 238 225 228 225 225 237 235 248 256 262 262 265 275 286 289 285 283 283 285 287 288 289 290 293 295 298 300 300 300 300 301 302 302 303
242 244 248 240 233 228 212 192 178 186 196 206 209 231 247 250 254 258 263 276 286 291 290 287 287 288 289 291 292 292 293 293 294 296 297 298 299 299 299 299 300 300 301 301
106 103 102 92 84 87 99 107 125 156 238 250 260 270 270 271 280 287 290 291 290 290 291 293 294 294 294 294 294 294 294 295 296 296 297 298 298 297 298 298 298 298 299 300
91 91 89 80 71 71 65 87 92 96 119 186 266 275 278 281 283 285 288 291 294 295 296 295 295 295 295 295 295 295 296 296 297 298 298 298 297 296 296 297 297 298 299 299
76 68 66 70 70 63 92 135 223 265 274 279 284 287 292 295 297 298 298 298 298 297 296 296 296 296 295 295 295 296 298 298 299 299 298 297 297 297 297 297 297 298 299 298
56 51 46 24 311 290 281 280 285 290 295 300 302 302 301 301 300 299 298 298 297 297 296 296 296 295 296 297 299 300 300 300 299 298 297 296 296 296 296 297 298 299 299 298
317 308 304 303 304 305 306 306 307 306 304 303 302 301 301 300 299 299 298 298 298 297 297 298 299 300 300 301 300 300 299 299 298 297 296 296 296 296 296 297 298 298 297 296
Height
3054 3056 3056 3057 3058 3062 3062 3065 3067 3069 3069 3069 3070 3071 3074 3072 3072 3074 3075 3075 3076 3076 3077 3078 3078 3078 3078 3079 3080 3081 3082 3084 3082 3083 3083 3080 3078 3076 3074 3072 3070 3067 3065 3064
3048 3051 3051 3051 3052 3054 3056 3058 3060 3062 3062 3065 3066 3066 3068 3069 3068 3069 3069 3069 3070 3070 3071 3072 3073 3073 3074 3075 3076 3077 3077 3077 3076 3076 3075 3073 3070 3068 3065 3063 3060 3058 3057 3054
3042 3046 3047 3044 3047 3049 3050 3052 3054 3056 3058 3061 3060 3061 3063 3063 3061 3062 3063 3064 3064 3064 3065 3065 3066 3068 3069 3070 3070 3071 3071 3070 3070 3069 3067 3065 3062 3060 3058 3055 3052 3050 3048 3046
3041 3041 3038 3039 3043 3045 3045 3046 3048 3050 3052 3054 3054 3055 3054 3055 3055 3054 3055 3056 3057 3058 3059 3060 3061 3062 3063 3064 3064 3064 3064 3064 3062 3060 3058 3056 3054 3052 3049 3047 3045 3042 3040 3037
3033 3034 3036 3034 3036 3039 3040 3040 3042 3043 3045 3047 3048 3045 3046 3047 3046 3046 3047 3049 3051 3052 3053 3054 3055 3057 3058 3058 3058 3058 3057 3055 3054 3052 3050 3048 3045 3043 3041 3039 3036 3034 3032 3029
3028 3029 3026 3029 3032 3035 3036 3032 3036 3037 3039 3041 3040 3038 3041 3037 3038 3039 3040 3042 3044 3046 3047 3048 3050 3051 3052 3052 3051 3050 3049 3047 3046 3044 3042 3040 3038 3035 3033 3031 3029 3027 3025 3022
3021 3021 3020 3023 3027 3029 3031 3029 3030 3031 3034 3035 3034 3032 3032 3031 3032 3032 3033 3035 3037 3040 3042 3044 3045 3045 3045 3045 3044 3043 3042 3041 3039 3037 3035 3032 3030 3028 3026 3025 3022 3020 3018 3015
3016 3016 3015 3019 3021 3025 3024 3025 3026 3026 3028 3027 3027 3024 3025 3025 3025 3026 3027 3030 3032 3035 3037 3038 3039 3039 3039 3038 3037 3037 3035 3034 3031 3029 3027 3025 3023 3021 3019 3017 3014 3011 3009 3006
3008 3007 3011 3013 3015 3018 3020 3020 3020 3020 3021 3020 3018 3018 3019 3019 3020 3021 3023 3026 3028 3030 3031 3031 3032 3031 3031 3030 3030 3029 3027 3025 3023 3021 3019 3017 3015 3012 3010 3007 3005 3002 2999 2997
3004 3005 3007 3009 3010 3013 3013 3014 3014 3013 3013 3013 3011 3011 3012 3013 3014 3016 3018 3020 3022 3023 3024 3024 3024 3024 3023 3022 3021 3020 3018 3016 3014 3012 3010 3008 3005 3003 3001 3000 2997 2994 2992 2988
2996 3000 3002 3003 3004 3006 3007 3007 3007 3007 3006 3006 3005 3005 3005 3007 3009 3011 3012 3014 3016 3016 3017 3017 3017 3016 3015 3014 3013 3011 3009 3007 3005 3002 3000 2999 2998 2996 2993 2993 2989 2986 2983 2979
2988 2994 2997 2998 3000 3000 3000 3000 3000 3000 2999 2999 2999 3000 3001 3001 3003 3005 3006 3008 3009 3010 3010 3009 3009 3008 3007 3006 3004 3002 2999 2997 2995 2994 2992 2990 2989 2988 2986 2983 2981 2978 2975 2971
2986 2990 2990 2993 2993 2994 2994 2994 2994 2993 2992 2992 2993 2995 2996 2996 2997 2998 2999 3001 3001 3001 3001 3001 3000 3000 2998 2996 2994 2992 2990 2988 2987 2985 2983 2982 2981 2979 2975 2975 2973 2969 2966 2960
2981 2981 2983 2986 2986 2987 2987 2987 2987 2986 2986 2987 2987 2988 2989 2990 2990 2991 2991 2992 2991 2992 2991 2991 2989 2989 2987 2986 2984 2982 2981 2980 2979 2978 2977 2975 2973 2971 2968 2965 2961 2956 2952 2950
2974 2974 2976 2978 2979 2979 2979 2980 2980 2979 2980 2980 2980 2981 2982 2983 2984 2983 2982 2982 2982 2981 2980 2979 2979 2977 2976 2974 2973 2973 2973 2973 2972 2971 2970 2967 2964 2962 2959 2956 2952 2948 2944 2938
2966 2968 2969 2970 2971 2972 2972 2972 2972 2972 2973 2972 2972 2973 2973 2974 2972 2972 2972 2972 2971 2969 2969 2968 2966 2966 2964 2962 2963 2963 2965 2965 2964 2964 2962 2959 2956 2953 2949 2946 2942 2937 2933 2927
2960 2961 2961 2961 2962 2963 2963 2965 2964 2965 2965 2964 2963 2962 2962 2961 2961 2961 2961 2961 2961 2959 2957 2956 2954 2954 2956 2956 2957 2957 2958 2958 2957 2956 2954 2951 2947 2944 2940 2936 2932 2926 2922 2917
2951 2951 2951 2952 2953 2953 2953 2953 2954 2954 2954 2954 2954 2953 2953 2954 2954 2954 2953 2951 2949 2949 2949 2950 2952 2952 2953 2953 2953 2952 2952 2951 2949 2947 2944 2942 2938 2934 2930 2925 2920 2916 2911 2906
2942 2943 2943 2944 2944 2944 2943 2943 2944 2944 2945 2945 2944 2945 2943 2943 2943 2943 2944 2943 2943 2945 2947 2948 2948 2947 2947 2947 2947 2946 2944 2941 2939 2937 2934 2931 2927 2923 2918 2914 2909 2905 2900 2895
2935 2936 2936 2936 2936 2936 2935 2936 2935 2935 2935 2934 2933 2933 2931 2931 2933 2937 2940 2940 2941 2942 2943 2943 2943 2942 2941 2940 2939 2937 2935 2932 2930 2927 2924 2920 2916 2911 2907 2903 2899 2893 2888 2883
2926 2927 2927 2927 2926 2926 2926 2926 2926 2927 2927 2926 2928 2929 2927 2929 2933 2936 2936 2936 2937 2938 2938 2937 2936 2936 2935 2933 2930 2928 2925 2923 2920 2916 2912 2909 2905 2900 2896 2891 2886 2881 2877 2872
2920 2920 2920 2920 2920 2920 2921 2921 2923 2925 2926 2926 2929 2930 2928 2929 2931 2933 2934 2934 2934 2933 2932 2931 2929 2928 2926 2924 2921 2919 2916 2913 2909 2905 2901 2897 2893 2888 2884 2879 2874 2869 2865 2860
2920 2921 2921 2922 2923 2922 2922 2923 2926 2928 2928 2929 2929 2929 2930 2931 2931 2931 2931 2930 2928 2927 2926 2924 2922 2920 2917 2914 2911 2908 2904 2901 2897 2893 2888 2884 2880 2875 2871 2866 2862 2857 2853 2849
2924 2925 2926 2926 2926 2927 2926 2927 2928 2928 2929 2929 2929 2929 2929 2928 2927 2926 2925 2923 2921 2920 2918 2915 2913 2910 2907 2904 2900 2896 2892 2888 2883 2879 2875 2871 2867 2862 2858 2854 2850 2846 2842 2838
2928 2927 2927 2927 2927 2927 2927 2927 2928 2928 2928 2928 2927 2926 2925 2923 2923 2920 2918 2916 2913 2911 2909 2907 2903 2899 2896 2892 2888 2883 2879 2874 2870 2866 2862 2858 2854 2850 2846 2842 2838 2835 2831 2828
2930 2929 2929 2928 2928 2927 2927 2926 2926 2926 2925 2924 2923 2922 2920 2919 2916 2914 2911 2908 2905 2902 2899 2895 2891 2888 2883 2878 2873 2869 2865 2860 2856 2852 2849 2845 2841 2838 2834 2831 2827 2824 2821 2818
2931 2930 2929 2928 2927 2926 2925 2925 2923 2923 2921 2920 2918 2916 2914 2911 2908 2906 2902 2898 2895 2890 2886 2882 2877 2873 2868 2864 2859 2855 2850 2846 2843 2839 2836 2832 2829 2826 2823 2820 2816 2814 2811 2808